Weather History for KDHT - April, 2014

Change the Weather History Date:

Monday, April 14, 2014

  Actual Average Record
Temperature  
Mean Temperature 35 °F 53 °F  
Max Temperature 44 °F 69 °F 90 °F (2006)
Min Temperature 26 °F 37 °F 25 °F (1983)
Degree Days  
Heating Degree Days 30 12  
Month to date heating degree days 186 194  
Since 1 July heating degree days 4369 4448  
Cooling Degree Days 0 0  
Month to date cooling degree days 2 0  
Year to date cooling degree days 2 0  
Moisture  
Dew Point 21 °F    
Average Humidity 59    
Maximum Humidity 85    
Minimum Humidity 33    
Precipitation  
Precipitation T in 0.04 in 0.81 in (1977)
Month to date precipitation 0.11 0.45  
Year to date precipitation 0.29 2.54  
Snow  
Snow T in 0.00 in T in (2014)
Month to date snowfall 1.0 0.8  
Since 1 July snowfall 17.4 18.5  
Snow Depth 1.00 in    
Sea Level Pressure  
Sea Level Pressure 30.25 in    
Wind  
Wind Speed 20 mph (North)    
Max Wind Speed 36 mph    
Max Gust Speed 43 mph    
Visibility 8 miles    
Events Fog , Snow    
T = Trace of Precipitation, MM = Missing Value Source: NWS Daily Summary

Daily Weather History Graph

Daily Weather History Graph

Search for Another Location

Airport or City:

Trip Planner

Search our weather history database for the weather conditions in past years. The results will help you decide how hot, cold, wet, or windy it might be!

Date:

Astronomy

Apr. 14, 2014 Rise Set
Actual Time 7:18 AM CDT 8:23 PM CDT
Civil Twilight 6:51 AM CDT 8:49 PM CDT
Nautical Twilight 6:20 AM CDT 9:20 PM CDT
Astronomical Twilight 5:48 AM CDT 9:53 PM CDT
Moon 8:04 PM CDT (4/14) 6:50 AM CDT (4/14)
Length of Visible Light 13h 57m
Length of Day
13h 04m
Full, 100% of the Moon is Illuminated
Apr 14
Full
Apr 15
Full
Apr 22
Last Quarter
Apr 29
New
May 6
First Quarter

Hourly Weather History & Observations

Time (CDT) Temp. Windchill Dew Point Humidity Pressure Visibility Wind Dir Wind Speed Gust Speed Precip Events Conditions
12:07 AM 30.0 °F 14.9 °F 25.0 °F 82% 30.09 in 1.8 mi North 29.9 mph 39.1 mph 0.00 in Snow Light Snow
12:15 AM 30.0 °F 15.2 °F 26.1 °F 85% 30.09 in 1.0 mi North 28.8 mph 36.8 mph 0.00 in Snow Light Snow
12:20 AM 30.0 °F 16.0 °F 26.1 °F 85% 30.11 in 0.8 mi North 25.3 mph 35.7 mph 0.00 in Snow Light Snow
12:53 AM 28.0 °F 12.3 °F 24.1 °F 85% 30.07 in 0.5 mi North 29.9 mph 40.3 mph 0.00 in Fog , Snow Snow
1:45 AM 27.0 °F 11.3 °F 23.0 °F 85% 30.15 in 0.8 mi North 27.6 mph 42.6 mph 0.00 in   Mist
1:53 AM 27.0 °F 11.0 °F 24.1 °F 89% 30.11 in 0.8 mi North 28.8 mph 38.0 mph 0.00 in   Overcast
2:21 AM 28.0 °F 13.0 °F 24.1 °F 85% 30.13 in 1.5 mi North 26.5 mph 35.7 mph N/A   Overcast
2:53 AM 28.0 °F 14.3 °F 24.1 °F 85% 30.14 in 2.5 mi North 21.9 mph 33.4 mph N/A   Overcast
3:00 AM 28.4 °F 13.8 °F 24.8 °F 86% 30.14 in 4.0 mi North 25.3 mph 34.5 mph N/A   Overcast
3:53 AM 28.4 °F 14.1 °F 23.0 °F 80% 30.14 in 10.0 mi North 24.2 mph 33.4 mph N/A   Overcast
4:53 AM 28.0 °F 11.8 °F 23.0 °F 81% 30.14 in 6.0 mi North 32.2 mph 38.0 mph N/A   Haze
5:53 AM 27.0 °F 10.8 °F 21.9 °F 81% 30.17 in 7.0 mi North 29.9 mph 36.8 mph N/A   Overcast
6:53 AM 26.6 °F 10.3 °F 21.2 °F 80% 30.20 in 10.0 mi North 29.9 mph 38.0 mph N/A   Overcast
7:53 AM 27.0 °F 11.6 °F 21.0 °F 78% 30.26 in 10.0 mi North 26.5 mph 32.2 mph 0.00 in   Overcast
8:14 AM 27.0 °F 10.5 °F 21.0 °F 78% 30.25 in 10.0 mi North 31.1 mph 41.4 mph 0.00 in   Overcast
8:21 AM 27.0 °F 11.3 °F 21.0 °F 78% 30.25 in 10.0 mi North 27.6 mph 41.4 mph 0.00 in   Overcast
8:53 AM 28.0 °F 13.0 °F 19.9 °F 72% 30.30 in 10.0 mi North 26.5 mph 32.2 mph 0.00 in   Mostly Cloudy
9:53 AM 30.0 °F 15.4 °F 21.0 °F 69% 30.33 in 10.0 mi North 27.6 mph 36.8 mph N/A   Scattered Clouds
10:03 AM 30.0 °F 15.4 °F 21.0 °F 69% 30.30 in 10.0 mi North 27.6 mph 36.8 mph N/A   Mostly Cloudy
10:53 AM 30.9 °F 16.2 °F 21.9 °F 69% 30.36 in 10.0 mi North 29.9 mph 35.7 mph N/A   Overcast
11:04 AM 30.9 °F 15.9 °F 21.9 °F 69% 30.31 in 10.0 mi NNE 31.1 mph 36.8 mph N/A   Overcast
11:22 AM 33.1 °F 19.1 °F 21.0 °F 61% 30.32 in 9.0 mi North 29.9 mph 40.3 mph 0.00 in Snow Light Snow
11:44 AM 33.1 °F 19.3 °F 19.9 °F 59% 30.33 in 10.0 mi North 28.8 mph 41.4 mph 0.00 in   Mostly Cloudy
11:53 AM 34.0 °F 20.8 °F 21.0 °F 59% 30.37 in 10.0 mi North 27.6 mph 35.7 mph 0.00 in   Mostly Cloudy
12:23 PM 35.1 °F 22.5 °F 19.9 °F 54% 30.34 in 10.0 mi North 26.5 mph 35.7 mph N/A   Mostly Cloudy
12:53 PM 35.6 °F 23.4 °F 19.4 °F 52% 30.33 in 10.0 mi North 25.3 mph 35.7 mph N/A   Mostly Cloudy
1:53 PM 37.9 °F 27.3 °F 17.1 °F 43% 30.36 in 10.0 mi North 21.9 mph 33.4 mph N/A   Mostly Cloudy
2:53 PM 39.0 °F 28.5 °F 18.0 °F 43% 30.35 in 10.0 mi North 23.0 mph 29.9 mph N/A   Mostly Cloudy
3:53 PM 41.0 °F 31.6 °F 17.6 °F 39% 30.30 in 10.0 mi North 20.7 mph 27.6 mph N/A   Mostly Cloudy
4:53 PM 43.0 °F 35.1 °F 18.0 °F 37% 30.30 in 10.0 mi North 17.3 mph 27.6 mph N/A   Partly Cloudy
5:53 PM 43.0 °F 35.4 °F 16.0 °F 34% 30.29 in 10.0 mi North 16.1 mph - N/A   Clear
6:53 PM 43.0 °F 35.7 °F 16.0 °F 34% 30.28 in 10.0 mi North 15.0 mph - N/A   Clear
7:53 PM 41.0 °F 33.9 °F 16.0 °F 36% 30.29 in 10.0 mi North 12.7 mph - N/A   Clear
8:53 PM 37.0 °F 33.3 °F 17.1 °F 44% 30.30 in 10.0 mi WNW 4.6 mph - N/A   Clear
9:53 PM 33.1 °F - 19.0 °F 56% 30.30 in 10.0 mi Calm Calm - N/A   Clear
10:53 PM 34.0 °F 29.8 °F 21.0 °F 59% 30.33 in 8.0 mi WSW 4.6 mph - N/A   Clear
11:53 PM 30.9 °F - 21.0 °F 67% 30.32 in 10.0 mi Calm Calm - N/A   Clear